Starlink 31330

operational
NORAD ID: 58951 Int'l Des: 2024-027 Owner: SPXS Country: US Constellation: starlink
LEOCIRCULAR

About Starlink 31330

Description loading...

Live Position

Loading 3D Globe...

Upcoming Passes

Altitude History

Altitude vs Time

uPlot chart will show altitude changes over time

Two-Line Element Set

1 58951U 24027W 25307.34414114 -.00000330 00000-0 97691-6 0 9997
2 58951 53.1595 173.7041 0001124 93.4524 266.6605 15.30190925 98021
Epoch: Nov 3, 2025 • Age: 25 hours

Current Status

Altitude 488.9 km
Velocity 7.62 km/s
Sub-Earth Point -39.59°S, 49.67°W
Launch Date Feb 10, 2024
Age 1.7 years
Type internet

Technical Details

Classification Payload
Mass 730.00 kg
Dry Mass 700.00 kg
Total Mass 730.00 kg
Length 0.30 m
Diameter 4.10 m
Span 29.00 m
Shape Box + pan
Manufacturer SPXS
Bus Type Starlink V2M
Phase Status In Orbit
Owner/State SPXS/US

Large Constellations

Loading constellations...